Weather History for Chester, CT

Change the Weather History Date:

Tuesday, April 29, 2014

  Actual Average (KHVN) Record (KHVN)
Temperature  
Mean Temperature 44 °F -  
Max Temperature 48 °F 61 °F 90 °F (1990)
Min Temperature 41 °F 44 °F 36 °F (1987)
Degree Days  
Heating Degree Days 20    
Moisture  
Dew Point 36 °F    
Average Humidity 71    
Maximum Humidity 87    
Minimum Humidity 58    
Precipitation  
Precipitation 0.01 in - - ()
Sea Level Pressure  
Sea Level Pressure 30.36 in    
Wind  
Wind Speed 8 mph (ENE)    
Max Wind Speed 14 mph    
Max Gust Speed 23 mph    
Visibility 10 miles    
Events Rain    
Averages and records for this station are not official NWS values.
T = Trace of Precipitation, MM = Missing Value Source: NWS Daily Summary

Daily Weather History Graph

Daily Weather History Graph

Search for Another Location

Airport:

Trip Planner

Search our weather history database for the weather conditions in past years. The results will help you decide how hot, cold, wet, or windy it might be!

Date:

Astronomy

Apr. 29, 2014 Rise Set
Actual Time 5:49 AM EDT 7:45 PM EDT
Civil Twilight 5:20 AM EDT 8:15 PM EDT
Nautical Twilight 4:43 AM EDT 8:51 PM EDT
Astronomical Twilight 4:04 AM EDT 9:31 PM EDT
Moon 6:06 AM EDT (4/29) 8:22 PM EDT (4/29)
Length of Visible Light 14h 55m
Length of Day
13h 55m
New Moon, 0% of the Moon is Illuminated
Apr 29
New Moon
May 6
First Quarter
May 14
Full
May 21
Last Quarter
May 28
New

Hourly Weather History & Observations

Time (EDT) Temp. Windchill Dew Point Humidity Pressure Visibility Wind Dir Wind Speed Gust Speed Precip Events Conditions
12:15 AM 46.4 °F 44.3 °F 35.6 °F 66% 30.18 in 10.0 mi ENE 4.6 mph - N/A   Overcast
12:35 AM 46.4 °F 45.2 °F 35.6 °F 66% 30.20 in 10.0 mi East 3.5 mph - N/A   Overcast
12:55 AM 46.4 °F 44.3 °F 35.6 °F 66% 30.20 in 10.0 mi ENE 4.6 mph - N/A   Overcast
1:15 AM 46.4 °F 44.3 °F 37.4 °F 71% 30.20 in 10.0 mi ENE 4.6 mph - N/A   Overcast
1:35 AM 46.4 °F 44.3 °F 37.4 °F 71% 30.19 in 10.0 mi ENE 4.6 mph - N/A   Overcast
1:55 AM 46.4 °F 44.3 °F 37.4 °F 71% 30.19 in 10.0 mi ENE 4.6 mph - N/A   Overcast
2:15 AM 46.4 °F 42.9 °F 37.4 °F 71% 30.20 in 10.0 mi ENE 6.9 mph - N/A   Overcast
2:35 AM 46.4 °F 40.7 °F 37.4 °F 71% 30.20 in 10.0 mi ENE 12.7 mph 17.3 mph N/A   Overcast
2:55 AM 46.4 °F 41.9 °F 37.4 °F 71% 30.20 in 10.0 mi ENE 9.2 mph - N/A   Overcast
3:15 AM 46.4 °F 42.9 °F 37.4 °F 71% 30.22 in 10.0 mi NE 6.9 mph - N/A   Overcast
3:35 AM 46.4 °F 41.9 °F 37.4 °F 71% 30.23 in 10.0 mi ENE 9.2 mph - N/A   Overcast
3:55 AM 46.4 °F 41.1 °F 37.4 °F 71% 30.24 in 10.0 mi East 11.5 mph 16.1 mph N/A   Overcast
4:15 AM 44.6 °F 39.2 °F 37.4 °F 76% 30.25 in 10.0 mi East 10.4 mph 16.1 mph N/A   Overcast
4:35 AM 44.6 °F 40.2 °F 37.4 °F 76% 30.25 in 10.0 mi ENE 8.1 mph - N/A   Overcast
5:15 AM 44.6 °F 39.2 °F 35.6 °F 71% 30.26 in 10.0 mi ENE 10.4 mph 20.7 mph N/A   Overcast
5:35 AM 44.6 °F 39.7 °F 35.6 °F 71% 30.27 in 10.0 mi ENE 9.2 mph 17.3 mph N/A   Overcast
5:55 AM 42.8 °F 36.6 °F 35.6 °F 76% 30.26 in 10.0 mi ENE 11.5 mph 23.0 mph N/A   Overcast
6:15 AM 42.8 °F 36.6 °F 35.6 °F 76% 30.28 in 10.0 mi East 11.5 mph 20.7 mph N/A   Overcast
6:35 AM 42.8 °F 37.5 °F 35.6 °F 76% 30.31 in 10.0 mi ENE 9.2 mph 17.3 mph N/A   Overcast
6:55 AM 42.8 °F 36.2 °F 35.6 °F 76% 30.31 in 10.0 mi ENE 12.7 mph 20.7 mph N/A   Overcast
7:15 AM 42.8 °F 38.6 °F 35.6 °F 76% 30.33 in 10.0 mi East 6.9 mph - N/A   Overcast
7:35 AM 42.8 °F 38.6 °F 35.6 °F 76% 30.33 in 10.0 mi ENE 6.9 mph - N/A   Overcast
7:55 AM 42.8 °F 37.5 °F 35.6 °F 76% 30.33 in 10.0 mi East 9.2 mph - N/A   Overcast
8:15 AM 42.8 °F 38.6 °F 35.6 °F 76% 30.34 in 10.0 mi East 6.9 mph 17.3 mph N/A   Overcast
8:35 AM 42.8 °F 35.8 °F 35.6 °F 76% 30.34 in 10.0 mi East 13.8 mph 20.7 mph N/A   Overcast
8:55 AM 42.8 °F 38.0 °F 35.6 °F 76% 30.36 in 10.0 mi East 8.1 mph 19.6 mph N/A   Overcast
9:15 AM 44.6 °F 39.7 °F 35.6 °F 71% 30.38 in 10.0 mi ENE 9.2 mph - N/A   Overcast
9:35 AM 44.6 °F 39.2 °F 35.6 °F 71% 30.38 in 10.0 mi ENE 10.4 mph - N/A   Overcast
9:55 AM 44.6 °F 39.7 °F 35.6 °F 71% 30.38 in 10.0 mi ENE 9.2 mph - N/A   Overcast
10:15 AM 44.6 °F 39.2 °F 35.6 °F 71% 30.38 in 10.0 mi ENE 10.4 mph - N/A   Overcast
10:35 AM 44.6 °F 38.8 °F 33.8 °F 66% 30.39 in 10.0 mi ENE 11.5 mph - N/A   Overcast
10:55 AM 44.6 °F 39.2 °F 33.8 °F 66% 30.40 in 10.0 mi ENE 10.4 mph - N/A   Overcast
11:15 AM 44.6 °F 39.7 °F 35.6 °F 71% 30.40 in 10.0 mi East 9.2 mph - N/A   Overcast
11:35 AM 44.6 °F 39.2 °F 35.6 °F 71% 30.40 in 10.0 mi NE 10.4 mph - N/A   Overcast
11:55 AM 44.6 °F 38.8 °F 35.6 °F 71% 30.40 in 10.0 mi East 11.5 mph 17.3 mph N/A   Overcast
12:15 PM 44.6 °F 38.8 °F 35.6 °F 71% 30.40 in 10.0 mi East 11.5 mph - N/A   Overcast
12:35 PM 44.6 °F 40.7 °F 35.6 °F 71% 30.40 in 10.0 mi ENE 6.9 mph - N/A   Overcast
12:55 PM 44.6 °F 40.7 °F 35.6 °F 71% 30.40 in 10.0 mi ENE 6.9 mph - N/A   Overcast
1:15 PM 46.4 °F 42.4 °F 35.6 °F 66% 30.40 in 10.0 mi ENE 8.1 mph - N/A   Overcast
1:35 PM 46.4 °F 42.9 °F 35.6 °F 66% 30.41 in 10.0 mi East 6.9 mph - N/A   Overcast
1:55 PM 48.2 °F - 35.6 °F 62% 30.41 in 10.0 mi East 6.9 mph - N/A   Overcast
2:15 PM 46.4 °F 40.7 °F 35.6 °F 66% 30.39 in 10.0 mi ENE 12.7 mph 16.1 mph N/A   Overcast
2:35 PM 48.2 °F - 35.6 °F 62% 30.39 in 10.0 mi East 10.4 mph - N/A   Overcast
2:55 PM 48.2 °F - 35.6 °F 62% 30.39 in 10.0 mi East 9.2 mph 16.1 mph N/A   Overcast
3:15 PM 48.2 °F - 35.6 °F 62% 30.40 in 10.0 mi East 11.5 mph - N/A   Overcast
3:35 PM 48.2 °F - 35.6 °F 62% 30.39 in 10.0 mi ENE 11.5 mph - N/A   Overcast
3:55 PM 48.2 °F - 33.8 °F 58% 30.40 in 10.0 mi ENE 9.2 mph - N/A   Mostly Cloudy
4:15 PM 48.2 °F - 33.8 °F 58% 30.40 in 10.0 mi East 11.5 mph 16.1 mph N/A   Mostly Cloudy
4:35 PM 46.4 °F 41.1 °F 33.8 °F 62% 30.40 in 10.0 mi ENE 11.5 mph 19.6 mph N/A   Mostly Cloudy
4:55 PM 48.2 °F - 33.8 °F 58% 30.40 in 10.0 mi East 9.2 mph - N/A   Scattered Clouds
5:15 PM 48.2 °F - 33.8 °F 58% 30.40 in 10.0 mi East 9.2 mph - N/A   Partly Cloudy
5:35 PM 46.4 °F 42.9 °F 33.8 °F 62% 30.40 in 10.0 mi ENE 6.9 mph 16.1 mph N/A Rain Light Rain
5:55 PM 46.4 °F 41.1 °F 33.8 °F 62% 30.40 in 9.0 mi East 11.5 mph 17.3 mph N/A Rain Light Rain
6:15 PM 44.6 °F 40.2 °F 35.6 °F 71% 30.41 in 8.0 mi ENE 8.1 mph - N/A Rain Light Rain
6:35 PM 44.6 °F 39.2 °F 35.6 °F 71% 30.42 in 8.0 mi East 10.4 mph - 0.01 in   Mostly Cloudy
6:55 PM 44.6 °F 39.7 °F 35.6 °F 71% 30.43 in 8.0 mi East 9.2 mph - 0.01 in   Mostly Cloudy
7:15 PM 42.8 °F 37.5 °F 35.6 °F 76% 30.44 in 9.0 mi East 9.2 mph - N/A   Overcast
7:35 PM 42.8 °F 37.0 °F 35.6 °F 76% 30.45 in 9.0 mi East 10.4 mph - N/A   Overcast
7:55 PM 42.8 °F 38.0 °F 35.6 °F 76% 30.45 in 10.0 mi East 8.1 mph - N/A   Overcast
8:15 PM 42.8 °F 38.0 °F 35.6 °F 76% 30.44 in 10.0 mi East 8.1 mph - N/A   Overcast
8:35 PM 42.8 °F 37.5 °F 35.6 °F 76% 30.43 in 10.0 mi East 9.2 mph 16.1 mph N/A   Overcast
8:55 PM 42.8 °F 37.5 °F 35.6 °F 76% 30.45 in 10.0 mi East 9.2 mph - N/A Rain Light Rain
9:15 PM 42.8 °F 38.6 °F 35.6 °F 76% 30.46 in 9.0 mi East 6.9 mph - N/A Rain Light Rain
9:35 PM 42.8 °F 38.6 °F 35.6 °F 76% 30.46 in 10.0 mi East 6.9 mph - N/A   Overcast
9:55 PM 42.8 °F 38.6 °F 35.6 °F 76% 30.47 in 10.0 mi East 6.9 mph - N/A Rain Light Rain
10:15 PM 41.0 °F 35.8 °F 35.6 °F 81% 30.46 in 9.0 mi East 8.1 mph - N/A   Overcast
10:35 PM 41.0 °F 37.1 °F 37.4 °F 87% 30.46 in 8.0 mi East 5.8 mph - N/A   Overcast
10:55 PM 41.0 °F 37.1 °F 37.4 °F 87% 30.46 in 10.0 mi East 5.8 mph - N/A   Overcast
11:15 PM 41.0 °F 36.4 °F 37.4 °F 87% 30.47 in 10.0 mi ESE 6.9 mph - N/A   Overcast
11:35 PM 41.0 °F 35.2 °F 37.4 °F 87% 30.46 in 10.0 mi East 9.2 mph 16.1 mph N/A   Overcast
11:55 PM 41.0 °F 34.7 °F 35.6 °F 81% 30.47 in 10.0 mi ESE 10.4 mph 16.1 mph N/A Rain Light Rain